Ogden, UT

3:33 PM MST on February 23, 2017 (GMT -0700)
Ogden-Hinckley

Weather History for KOGD - December, 2012

Change the Weather History Date:

Tuesday, December 4, 2012

  Actual Average Record
Temperature  
Mean Temperature 38 °F -  
Max Temperature 44 °F 44 °F 58 °F (1939)
Min Temperature 32 °F 23 °F 4 °F (1971)
Degree Days  
Heating Degree Days 27    
Moisture  
Dew Point 32 °F    
Average Humidity 78    
Maximum Humidity 96    
Minimum Humidity 55    
Precipitation  
Precipitation 0.05 in - - ()
Sea Level Pressure  
Sea Level Pressure 30.28 in    
Wind  
Wind Speed 5 mph (SSE)    
Max Wind Speed 7 mph    
Max Gust Speed -    
Visibility 9 miles    
Events Rain    
Averages and records for this station are not official NWS values.
T = Trace of Precipitation, MM = Missing Value Source: NWS Daily Summary

Daily Weather History Graph

Daily Weather History Graph

Search for Another Location

Airport or City:

Trip Planner

Search our weather history database for the weather conditions in past years. The results will help you decide how hot, cold, wet, or windy it might be!

Date:

Astronomy

Dec. 04, 2012 Rise Set
Actual Time 7:37 AM MST 4:59 PM MST
Civil Twilight 7:06 AM MST 5:30 PM MST
Nautical Twilight 6:32 AM MST 6:04 PM MST
Astronomical Twilight 5:59 AM MST 6:37 PM MST
Moon 10:52 PM MST (12/4) 11:31 AM MST (12/4)
Length of Visible Light 10h 23m
Length of Day
9h 21m
Waning Gibbous, 69% of the Moon is Illuminated
Dec 4
Waning Gibbous
Dec 6
Last Quarter
Dec 13
New
Dec 19
First Quarter
Dec 28
Full

Hourly Weather History & Observations

Time (MST) Temp. Windchill Dew Point Humidity Pressure Visibility Wind Dir Wind Speed Gust Speed Precip Events Conditions
12:53 AM 32.0 °F 25.6 °F 24.1 °F 73% 30.29 in 10.0 mi South 6.9 mph - N/A   Clear
1:53 AM 32.0 °F 25.6 °F 24.1 °F 73% 30.28 in 10.0 mi South 6.9 mph - N/A   Clear
2:53 AM 33.1 °F 26.9 °F 24.1 °F 70% 30.28 in 10.0 mi SSE 6.9 mph - N/A   Partly Cloudy
3:53 AM 34.0 °F 28.0 °F 23.0 °F 64% 30.27 in 10.0 mi South 6.9 mph - N/A   Mostly Cloudy
4:53 AM 34.0 °F 28.0 °F 24.1 °F 67% 30.28 in 10.0 mi South 6.9 mph - N/A   Overcast
5:53 AM 35.1 °F 29.3 °F 23.0 °F 61% 30.29 in 10.0 mi SSE 6.9 mph - N/A   Overcast
6:53 AM 35.1 °F - 23.0 °F 61% 30.31 in 10.0 mi Calm Calm - N/A   Overcast
7:53 AM 36.0 °F 32.1 °F 24.1 °F 62% 30.32 in 10.0 mi South 4.6 mph - N/A   Overcast
8:53 AM 37.9 °F - 23.0 °F 55% 30.35 in 10.0 mi Calm Calm - N/A   Overcast
9:53 AM 37.0 °F 34.5 °F 30.0 °F 76% 30.39 in 8.0 mi ENE 3.5 mph - 0.00 in Rain Light Rain
10:53 AM 39.0 °F 36.8 °F 32.0 °F 76% 30.36 in 10.0 mi SE 3.5 mph - 0.01 in   Overcast
11:53 AM 42.1 °F 38.4 °F 34.0 °F 73% 30.33 in 10.0 mi SSE 5.8 mph - 0.00 in Rain Light Rain
12:53 PM 42.1 °F 37.7 °F 37.0 °F 82% 30.32 in 10.0 mi WNW 6.9 mph - 0.00 in   Overcast
1:53 PM 39.9 °F 36.7 °F 36.0 °F 86% 30.32 in 10.0 mi ENE 4.6 mph - 0.00 in   Overcast
2:53 PM 41.0 °F 36.4 °F 37.0 °F 86% 30.28 in 10.0 mi SE 6.9 mph - 0.00 in Rain Light Rain
3:53 PM 44.1 °F - 37.9 °F 79% 30.28 in 10.0 mi Calm Calm - 0.00 in Rain Light Rain
4:53 PM 43.0 °F 40.3 °F 39.9 °F 89% 30.27 in 8.0 mi SSE 4.6 mph - 0.02 in Rain Light Rain
5:53 PM 41.0 °F 38.0 °F 39.0 °F 93% 30.28 in 10.0 mi South 4.6 mph - 0.02 in Rain Light Rain
6:53 PM 41.0 °F 36.4 °F 39.0 °F 93% 30.22 in 10.0 mi South 6.9 mph - 0.00 in   Overcast
7:53 PM 42.1 °F 37.7 °F 39.0 °F 89% 30.19 in 10.0 mi SE 6.9 mph - N/A   Overcast
8:53 PM 39.0 °F 34.8 °F 37.9 °F 96% 30.17 in 6.0 mi North 5.8 mph - N/A   Mostly Cloudy
9:53 PM 39.0 °F 34.0 °F 37.0 °F 93% 30.22 in 7.0 mi NNE 6.9 mph - N/A   Overcast
10:53 PM 41.0 °F 38.0 °F 37.9 °F 89% 30.20 in 9.0 mi SW 4.6 mph - N/A   Overcast
11:53 PM 41.0 °F - 37.9 °F 89% 30.19 in 8.0 mi Calm Calm - N/A   Overcast